| time (UTC) | temp C | wind direction | speed KPH | gust KPH | rain 1hr cm | rain 24hr cm | rain mn cm | humidity % | barometer mb |
| 20260504050641 | 18 | 171 | 4.8 | 16.1 | 0.00 | 0.00 | 0.00 | 68 | 1015.5 |
| 20260504045636 | 18 | 151 | 4.8 | 14.5 | 0.00 | 0.00 | 0.00 | 67 | 1015.5 |
| 20260504044632 | 18 | 155 | 6.4 | 12.9 | 0.00 | 0.00 | 0.00 | 66 | 1015.4 |
| 20260504042512 | 18 | 187 | 4.8 | 12.9 | 0.00 | 0.00 | 0.00 | 63 | 1015.5 |
| 20260504040352 | 19 | 149 | 6.4 | 16.1 | 0.00 | 0.00 | 0.00 | 60 | 1015.6 |
| 20260504035406 | 19 | 180 | 4.8 | 22.5 | 0.00 | 0.00 | 0.00 | 59 | 1015.7 |
| 20260504034355 | 19 | 211 | 4.8 | 22.5 | 0.00 | 0.00 | 0.00 | 57 | 1015.7 |
| 20260504033416 | 19 | 165 | 3.2 | 12.9 | 0.00 | 0.00 | 0.00 | 56 | 1015.6 |
| 20260504032346 | 20 | 184 | 4.8 | 12.9 | 0.00 | 0.00 | 0.00 | 54 | 1015.5 |
| 20260504030240 | 20 | 186 | 3.2 | 6.4 | 0.00 | 0.00 | 0.00 | 53 | 1015.5 |
| 20260504025250 | 20 | 169 | 1.6 | 8.0 | 0.00 | 0.00 | 0.00 | 53 | 1015.5 |
| 20260504024303 | 20 | 200 | 1.6 | 8.0 | 0.00 | 0.00 | 0.00 | 52 | 1015.5 |
| 20260504023313 | 20 | 174 | 3.2 | 8.0 | 0.00 | 0.00 | 0.00 | 52 | 1015.4 |
| 20260504022249 | 20 | 172 | 1.6 | 6.4 | 0.00 | 0.00 | 0.00 | 52 | 1015.5 |
| 20260504021217 | 20 | 197 | 1.6 | 8.0 | 0.00 | 0.00 | 0.00 | 51 | 1015.4 |
| 20260504020154 | 21 | 176 | 3.2 | 8.0 | 0.00 | 0.00 | 0.00 | 50 | 1015.4 |
| 20260504015157 | 21 | 177 | 1.6 | 8.0 | 0.00 | 0.00 | 0.00 | 49 | 1015.3 |
| 20260504013021 | 21 | 183 | 3.2 | 8.0 | 0.00 | 0.00 | 0.00 | 48 | 1014.9 |
| 20260504011950 | 22 | 174 | 3.2 | 8.0 | 0.00 | 0.00 | 0.00 | 46 | 1014.8 |
| 20260504005834 | 22 | 171 | 3.2 | 11.3 | 0.00 | 0.00 | 0.00 | 44 | 1014.8 |
| 20260504004845 | 23 | 182 | 3.2 | 12.9 | 0.00 | 0.00 | 0.00 | 43 | 1014.8 |
| 20260504002647 | 23 | 156 | 4.8 | 14.5 | 0.00 | 0.00 | 0.00 | 41 | 1015.0 |
| 20260504001650 | 23 | 175 | 4.8 | 17.7 | 0.00 | 0.00 | 0.00 | 40 | 1015.1 |
| 20260504000715 | 24 | 158 | 6.4 | 17.7 | 0.00 | 0.00 | 0.00 | 39 | 1015.2 |
| 20260503234641 | 25 | 182 | 6.4 | 20.9 | 0.00 | 0.00 | 0.00 | 38 | 1015.5 |
| 20260503233620 | 25 | 180 | 6.4 | 19.3 | 0.00 | 0.00 | 0.00 | 38 | 1015.6 |
| 20260503232559 | 25 | 118 | 6.4 | 19.3 | 0.00 | 0.00 | 0.00 | 37 | 1015.4 |
| 20260503231538 | 25 | 183 | 4.8 | 17.7 | 0.00 | 0.00 | 0.00 | 40 | 1015.6 |
| 20260503230536 | 25 | 148 | 8.0 | 25.7 | 0.00 | 0.00 | 0.00 | 38 | 1015.4 |
| 20260503225528 | 25 | 251 | 6.4 | 25.7 | 0.00 | 0.00 | 0.00 | 39 | 1015.4 |
| 20260503224523 | 25 | 169 | 6.4 | 17.7 | 0.00 | 0.00 | 0.00 | 40 | 1015.5 |
| 20260503222403 | 26 | 155 | 4.8 | 24.1 | 0.00 | 0.00 | 0.00 | 36 | 1015.9 |
| 20260503220224 | 26 | 135 | 4.8 | 16.1 | 0.00 | 0.00 | 0.00 | 36 | 1016.2 |
| 20260503215205 | 26 | 238 | 6.4 | 20.9 | 0.00 | 0.00 | 0.00 | 36 | 1016.4 |
| 20260503214142 | 26 | 179 | 6.4 | 25.7 | 0.00 | 0.00 | 0.00 | 35 | 1016.5 |
| 20260503213201 | 26 | 175 | 6.4 | 25.7 | 0.00 | 0.00 | 0.00 | 34 | 1016.6 |
| 20260503212211 | 26 | 188 | 4.8 | 29.0 | 0.00 | 0.00 | 0.00 | 36 | 1016.8 |
| 20260503211141 | 26 | 212 | 8.0 | 29.0 | 0.00 | 0.00 | 0.00 | 35 | 1017.1 |
| 20260503210146 | 26 | 211 | 6.4 | 22.5 | 0.00 | 0.00 | 0.00 | 35 | 1017.2 |
| 20260503205200 | 26 | 141 | 6.4 | 22.5 | 0.00 | 0.00 | 0.00 | 33 | 1017.6 |
| 20260503202952 | 26 | 174 | 6.4 | 20.9 | 0.00 | 0.00 | 0.00 | 34 | 1017.9 |
| 20260503202000 | 26 | 161 | 6.4 | 22.5 | 0.00 | 0.00 | 0.00 | 34 | 1018.2 |
| 20260503200948 | 26 | 153 | 8.0 | 22.5 | 0.00 | 0.00 | 0.00 | 35 | 1018.1 |
| 20260503195928 | 26 | 118 | 6.4 | 25.7 | 0.00 | 0.00 | 0.00 | 33 | 1018.3 |
| 20260503194854 | 26 | 202 | 9.7 | 25.7 | 0.00 | 0.00 | 0.00 | 35 | 1018.6 |
| 20260503193917 | 26 | 203 | 6.4 | 19.3 | 0.00 | 0.00 | 0.00 | 33 | 1018.6 |
| 20260503192845 | 26 | 187 | 8.0 | 19.3 | 0.00 | 0.00 | 0.00 | 31 | 1018.8 |
| 20260503191825 | 26 | 134 | 6.4 | 22.5 | 0.00 | 0.00 | 0.00 | 31 | 1018.9 |
| 20260503190758 | 26 | 208 | 6.4 | 22.5 | 0.00 | 0.00 | 0.00 | 31 | 1018.9 |
| 20260503185751 | 26 | 218 | 4.8 | 19.3 | 0.00 | 0.00 | 0.00 | 35 | 1019.1 |
| 20260503184716 | 26 | 226 | 3.2 | 20.9 | 0.00 | 0.00 | 0.00 | 37 | 1019.3 |
| 20260503182620 | 25 | 142 | 6.4 | 17.7 | 0.00 | 0.00 | 0.00 | 36 | 1019.6 |
| 20260503181558 | 26 | 280 | 4.8 | 11.3 | 0.00 | 0.00 | 0.00 | 36 | 1019.8 |
| 20260503180529 | 26 | 145 | 4.8 | 16.1 | 0.00 | 0.00 | 0.00 | 33 | 1019.9 |
| 20260503174342 | 25 | 177 | 6.4 | 19.3 | 0.00 | 0.00 | 0.00 | 36 | 1020.5 |
| 20260503173352 | 25 | 190 | 4.8 | 19.3 | 0.00 | 0.00 | 0.00 | 37 | 1020.6 |
| 20260503172402 | 25 | 144 | 6.4 | 24.1 | 0.00 | 0.00 | 0.00 | 37 | 1020.7 |
| 20260503170220 | 24 | 212 | 6.4 | 20.9 | 0.00 | 0.00 | 0.00 | 41 | 1021.0 |
| 20260503081528 | 15 | 200 | 0.0 | 0.0 | 0.00 | 0.03 | 0.00 | 70 | 1019.8 |
| 20260503080531 | 15 | 200 | 0.0 | 4.8 | 0.00 | 0.03 | 0.00 | 69 | 1019.9 |
| 20260503072459 | 13 | 165 | 0.0 | 0.0 | 0.00 | 0.03 | 0.00 | 73 | 1020.1 |
| 20260503071447 | 13 | 165 | 0.0 | 0.0 | 0.00 | 0.03 | 0.00 | 73 | 1020.3 |